Location: Aciu?a
(46.2833°N, 22.4500°E)
Time: 16:25:21
(UTC+00:00)

Cosmos 1455 - Pass Details

Date: 02 June 2022
Orbit: 492 x 515 km, 82.5° (Epoch: 29 June)

Event Time Altitude Azimuth Distance (km) Brightness Sun altitude
Rises 22:17:20 0° 8° (N) 2,585 7.2 -21.4°
Reaches altitude 10° 22:20:16 10° 34° (NNE) 1,698 5.6 -21.4°
Maximum altitude 22:22:22 14° 68° (ENE) 1,438 4.7 -21.4°
Enters shadow 22:23:43 12° 92° (E) 1,548 4.6 -21.4°
